Regional Weather Roundup
Issued by NWS

Home | Current Version | Previous Version | Graphics & Text | Print | Product List | Glossary On
Versions: 1 2 3 4 5 6 7 8 9 10 11 12 13 14 15 16 17 18 19 20 21 22 23 24 25 26 27 28 29 30 31 32 33 34 35 36 37 38 39 40 41 42 43 44 45 46 47
000
ASUS45 KBOU 221207
RWRCO

WEATHER ROUNDUP FOR COLORADO
NATIONAL WEATHER SERVICE DENVER/BOULDER CO
600 AM MDT TUE JUL 22 2014

NOTE: "FAIR" INDICATES FEW OR NO CLOUDS BELOW 12000 FEET WITH NO
SIGNIFICANT WEATHER AND/OR OBSTRUCTIONS TO VISIBILITY.

COZ001>005-013-030-031-221300-
...NORTHWEST COLORADO...

CITY           SKY/WX    TMP DP  RH WIND       PRES   REMARKS
CRAIG          CLEAR     38  38 100 CALM      30.37R
HAYDEN         CLEAR     52  36  54 SE10      30.38R
MEEKER         CLEAR     50  33  52 CALM      30.38R
MOUNT WERNER   NOT AVBL
STEAMBOAT SPGS CLEAR     47  39  72 CALM      30.42R
WALDEN         CLEAR     37  32  81 E8        30.50R
$$

COZ006>008-011-221300-
...WEST CENTRAL VALLEYS...

CITY           SKY/WX    TMP DP  RH WIND       PRES   REMARKS
GRAND JUNCTION CLEAR     63  27  25 E6        30.24R
MONTROSE       CLEAR     60  35  39 S3        30.34R
EAGLE          CLEAR     50  39  66 CALM      30.45R
RIFLE          CLEAR     55  31  39 E6        30.33R
DELTA          CLEAR     60  33  36 E8        30.30R
NUCLA          CLEAR     57  30  35 E6        30.37R
$$

COZ017>023-064>068-221300-
...SOUTHWEST COLORADO...

CITY           SKY/WX    TMP DP  RH WIND       PRES   REMARKS
DURANGO        CLEAR     58  34  40 CALM      30.36R
CORTEZ         CLEAR     48  33  56 E3        30.32R
PAGOSA SPRINGS CLEAR     53  41  65 CALM      30.46R
TELLURIDE      CLEAR     54  30  40 E6        30.58R
WOLF CREEK PAS NOT AVBL
$$

COZ009-010-012-014-032>034-037-058>063-221300-
...CENTRAL COLORADO...

CITY           SKY/WX    TMP DP  RH WIND       PRES   REMARKS
ASPEN          CLEAR     51  33  50 S6        30.49R
BUENA VISTA    CLEAR     49  34  58 E3        30.51R
COPPER MTN     CLEAR     54  21  28 W8        30.82R
BERTHOUD PASS  FAIR      46  34  61 W9        30.86R
COTTONWOOD PAS CLEAR     63  21  20 W10       30.64S
GUNNISON       CLEAR     43  34  70 CALM      30.56R
KREMMLING      CLEAR     41  36  81 CALM      30.51R
LEADVILLE      CLEAR     44  31  60 E5        30.65R
MONARCH PASS   CLEAR     52  27  37 NW8       30.91R
SALIDA         CLEAR     54  38  54 W3        30.56R
SUNLIGHT       CLEAR     59  21  23 CALM      30.72R
WILKERSON PASS CLEAR     55  27  33 NW7       30.77R
$$

COZ069>075-221300-
...SAN LUIS VALLEY/SANGRE DE CRISTO MOUNTAINS...

CITY           SKY/WX    TMP DP  RH WIND       PRES   REMARKS
ALAMOSA        PTCLDY    48  45  89 W5        30.45S
LA VETA PASS   CLEAR     55  37  50 SW3       30.65R
SAGUACHE       CLEAR     50  37  62 NW9       30.50R
$$

COZ035-036-038>040-221300-
...NORTHERN COLORADO FRONT RANGE...

CITY           SKY/WX    TMP DP  RH WIND       PRES   REMARKS
DENVER INTL AP PTCLDY    64  45  49 W6        30.26R
DMNS CITY PARK   N/A     65  45  48 SW3       30.26R
AURORA         PTCLDY    66  45  46 SW7       30.28R
FRONT RANGE AP NOT AVBL
ERIE MUNI ARPT CLEAR     57  48  72 W7        30.25R
BOULDER MUN AP CLEAR     64  45  48 W5        30.27R
CENTENNIAL     PTCLDY    63  44  50 CALM      30.28R
BROOMFIELD     CLEAR     66  41  39 NW7       30.29R
FORT COLLINS   CLEAR     66  46  48 NE7       30.25R
LONGMONT       CLEAR     62  49  63 SW5       30.27R
$$

COZ041-046-047-076>085-087-088-221300-
...PIKES PEAK/PALMER DIVIDE AND SOUTHERN FOOTHILLS...

CITY           SKY/WX    TMP DP  RH WIND       PRES   REMARKS
COLO. SPRINGS  CLEAR     61  50  67 N7        30.31S
A. F. ACADEMY  CLEAR     53  46  75 N10       30.35R
ELLICOTT       CLEAR     60  52  74 N9        30.29S
FALCON         CLEAR     59  47  64 NW7       30.36S
FORT CARSON    CLEAR     61  46  59 NW15      30.27S
LIMON          CLEAR     56  52  86 N5        30.24R
MONUMENT HILL  CLEAR     59  45  58 SW10      30.37R
TRINIDAD       CLEAR     66  51  58 W12       30.27R
$$

COZ042>045-048>051-090-091-221300-
...NORTHEAST COLORADO...

CITY           SKY/WX    TMP DP  RH WIND       PRES   REMARKS
GREELEY ARPT   CLEAR     59  48  67 NW6       30.23R
AKRON          CLEAR     71  54  54 SW15      30.17R
BURLINGTON     CLEAR     65  57  75 W12       30.13F
WRAY             N/A     77  54  45 NE13      30.13R
STERLING       CLEAR     72  54  53 N8        30.15R
HOLYOKE        PTCLDY    73  57  56 NE9       30.14R
FORT MORGAN    CLEAR     63  50  62 W6        30.19R
$$

COZ086-089-092>099-221300-
...SOUTHEAST COLORADO...

CITY           SKY/WX    TMP DP  RH WIND       PRES   REMARKS
PUEBLO         CLEAR     60  53  77 W7        30.20R
LA JUNTA       CLEAR     67  57  70 W5        30.13R
LAMAR          CLEAR     65  60  84 SE8       30.10R
SPRINGFIELD      N/A     64  61  90 SW5       30.14R
$$



USA.gov is the U.S. government's official web portal to all federal, state and local government web resources and services.